Glennallen, AK

1:08 PM AKST on December 06, 2016 (GMT -0900)
Gulkana

Weather History for PAGK - October, 2013

Change the Weather History Date:

Monday, October 28, 2013

  Actual Average Record
Temperature  
Mean Temperature 43 °F -  
Max Temperature 55 °F 24 °F 55 °F (2013)
Min Temperature 31 °F 8 °F -13 °F (1996)
Degree Days  
Heating Degree Days 22    
Moisture  
Dew Point 37 °F    
Average Humidity 64    
Maximum Humidity 83    
Minimum Humidity 43    
Precipitation  
Precipitation 0.03 in - - ()
Sea Level Pressure  
Sea Level Pressure 29.46 in    
Wind  
Wind Speed 24 mph (SSE)    
Max Wind Speed 33 mph    
Max Gust Speed 45 mph    
Visibility 10 miles    
Events Rain    
Averages and records for this station are not official NWS values.
T = Trace of Precipitation, MM = Missing Value Source: NWS Daily Summary

Daily Weather History Graph

Daily Weather History Graph

Search for Another Location

Airport or City:

Trip Planner

Search our weather history database for the weather conditions in past years. The results will help you decide how hot, cold, wet, or windy it might be!

Date:

Astronomy

Oct. 28, 2013 Rise Set
Actual Time 9:04 AM AKDT 5:45 PM AKDT
Civil Twilight 8:16 AM AKDT 6:33 PM AKDT
Nautical Twilight 7:23 AM AKDT 7:26 PM AKDT
Astronomical Twilight 6:31 AM AKDT 8:17 PM AKDT
Moon 1:24 AM AKDT (10/28) 4:03 PM AKDT (10/28)
Length of Visible Light 10h 17m
Length of Day
8h 41m
Waning Crescent, 33% of the Moon is Illuminated
Oct 28
Waning Crescent
Nov 3
New
Nov 9
First Quarter
Nov 17
Full
Nov 25
Last Quarter

Hourly Weather History & Observations

Time (AKDT) Temp. Windchill Dew Point Humidity Pressure Visibility Wind Dir Wind Speed Gust Speed Precip Events Conditions
12:53 AM 46.9 °F - 42.1 °F 83% 29.79 in 10.0 mi SSE 24.2 mph 33.4 mph 0.00 in Rain Light Rain
1:53 AM 48.9 °F - 41.0 °F 74% 29.75 in 10.0 mi SSE 28.8 mph 40.3 mph 0.00 in Rain Light Rain
2:53 AM 51.1 °F - 39.9 °F 66% 29.71 in 10.0 mi SSE 31.1 mph 40.3 mph 0.00 in   Partly Cloudy
3:53 AM 50.0 °F - 37.0 °F 61% 29.69 in 10.0 mi South 28.8 mph 38.0 mph N/A   Clear
4:53 AM 50.0 °F - 36.0 °F 59% 29.63 in 10.0 mi SSE 26.5 mph 38.0 mph N/A   Clear
5:53 AM 51.1 °F - 33.1 °F 50% 29.63 in 10.0 mi SSE 29.9 mph 38.0 mph N/A   Clear
6:53 AM 51.1 °F - 32.0 °F 48% 29.60 in 10.0 mi SSE 20.7 mph 29.9 mph N/A   Clear
7:53 AM 52.0 °F - 33.1 °F 49% 29.55 in 10.0 mi SSE 23.0 mph 33.4 mph N/A   Partly Cloudy
8:53 AM 53.1 °F - 35.1 °F 50% 29.49 in 10.0 mi SSE 33.4 mph 44.9 mph N/A   Mostly Cloudy
9:53 AM 53.1 °F - 37.0 °F 55% 29.46 in 10.0 mi SSE 29.9 mph 42.6 mph N/A   Overcast
10:53 AM 54.0 °F - 37.0 °F 53% 29.44 in 10.0 mi SSE 23.0 mph 39.1 mph N/A   Overcast
11:53 AM 54.0 °F - 37.9 °F 55% 29.39 in 10.0 mi South 24.2 mph 32.2 mph N/A   Overcast
12:53 PM 54.0 °F - 37.9 °F 55% 29.31 in 10.0 mi SSE 18.4 mph 36.8 mph N/A   Clear
1:53 PM 54.0 °F - 39.0 °F 57% 29.29 in 10.0 mi South 18.4 mph 29.9 mph 0.00 in Rain Light Rain
2:53 PM 48.0 °F - 41.0 °F 77% 29.30 in 10.0 mi SSE 23.0 mph 33.4 mph 0.03 in Rain Light Rain
3:53 PM 46.9 °F - 39.0 °F 74% 29.33 in 10.0 mi South 19.6 mph 29.9 mph 0.00 in   Overcast
4:53 PM 46.0 °F 38.5 °F 39.0 °F 76% 29.30 in 10.0 mi SSE 19.6 mph 25.3 mph 0.00 in Rain Light Rain
5:53 PM 44.1 °F 35.7 °F 39.0 °F 82% 29.30 in 10.0 mi SSE 20.7 mph 33.4 mph 0.00 in   Partly Cloudy
6:53 PM 44.1 °F 35.9 °F 37.9 °F 79% 29.30 in 10.0 mi SSE 19.6 mph 33.4 mph N/A   Clear
7:53 PM 45.0 °F 37.6 °F 36.0 °F 71% 29.36 in 10.0 mi South 17.3 mph 29.9 mph N/A   Mostly Cloudy
8:53 PM 43.0 °F 35.4 °F 36.0 °F 76% 29.37 in 10.0 mi SSE 16.1 mph - N/A   Partly Cloudy
9:53 PM 42.1 °F 35.7 °F 34.0 °F 73% 29.37 in 10.0 mi SSE 11.5 mph - N/A   Unknown
10:53 PM 41.0 °F 33.5 °F 34.0 °F 76% 29.38 in 10.0 mi SSE 13.8 mph - N/A   Clear
11:53 PM 42.1 °F 34.2 °F 33.1 °F 70% 29.40 in 10.0 mi South 16.1 mph 21.9 mph N/A   Scattered Clouds